Other Public Products
Issued by NWS Charleston, SC

Home | Current Version | Previous Version | Text Only | Print | Product List | Glossary On
Versions: 1 2 3 4 5 6 7 8 9 10 11 12 13 14 15 16 17 18 19 20 21 22 23 24 25 26 27 28 29 30 31 32 33 34 35 36 37 38 39 40 41 42 43 44 45 46 47 48 49 50
000
FPUS82 KCHS 201127
OPUCHS

TEST...KCHS/KSAV Gateway Observations...TEST
National Weather Service Charleston SC
600 AM EST MON FEB 20 2017

NOTE: "fair" indicates few or no clouds below 12,000 feet with no
significant weather and/or obstructions to visibility.

SCZ050-WAZ558-NCZ071-TXZ119-213-PAZ071-DCZ001-FLZ074-172-MI076-
NYZ176-178-MAZ016-IL014-TNZ027-NJZ106-GAZ044-MD014-201200-
...Gateway Observations for Charleston International...

CITY           SKY/WX    TMP DP  RH WIND       PRES   REMARKS
Chas Airport   CLEAR     48  45  89 N3        30.14R
Seattle        LGT RAIN  41  38  89 CALM      29.59F
Charlotte      CLEAR     41  38  89 N3        30.17R
Dallas DFW     CLOUDY    59  57  93 E9        29.82F
Dallas Love    CLOUDY    59  55  87 E12       29.84F
Philladelphia  CLEAR     44  32  62 N9        30.14R
Wash National  PTCLDY    44  41  89 S3        30.15R
Baltimore      PTCLDY    41  37  86 CALM      30.14R
Miami          PTCLDY    67  63  87 CALM      30.07R
Detroit        CLOUDY    37  30  75 CALM      30.24R
Newark         CLEAR     44  31  60 NW12G24   30.11R
Laguardia      PTCLDY    46  32  58 NW12      30.10R
J F K          CLEAR     46  33  60 NW13      30.11R
Boston Logan   PTCLDY    39  25  57 NW12G21   30.04R WCI  32
Ft. Lauderdale PTCLDY    66  63  90 N6        30.06S
Chicago O`Hare CLOUDY    46  42  86 SE8       30.10S
Chicago Midway CLOUDY    47  42  83 SE7       30.12R FOG
Houston Bush   CLOUDY    71  67  87 SE6       29.90S
Houston Hobby  CLOUDY    71  67  87 SE7       29.88S
Nashville      MOCLDY    46  44  93 CALM      30.18R FOG
Atlanta        PTCLDY    51  44  77 NE3       30.14R

$$

GAZ044-118-TXZ119-213-NCZ071-DCZ001-MDZ014-506-PAZ021-071-NJZ106-
NYZ176-178-MAZ106-OHZ011-021-055-MIZ076-KYZ091-ILZ014-INZ047-
MNZ060-201200-
...Gateway Observations for Savannah International...

CITY           SKY/WX    TMP DP  RH WIND       PRES   REMARKS
Savannah Arpt  PTCLDY    49  46  90 CALM      30.14R
Atlanta        PTCLDY    51  44  77 NE3       30.14R
Charlotte      CLEAR     41  38  89 N3        30.17R
Dallas DFW     CLOUDY    59  57  93 E9        29.82F
Houston Bush   CLOUDY    71  67  87 SE6       29.90S
Wash National  PTCLDY    44  41  89 S3        30.15R
Wash Dulles    PTCLDY    49  40  71 NW9       30.15R
Baltimore      PTCLDY    41  37  86 CALM      30.14R
Philadelphia   CLEAR     44  32  62 N9        30.14R
Newark         CLEAR     44  31  60 NW12G24   30.11R
Laguardia      PTCLDY    46  32  58 NW12      30.10R
J F K          CLEAR     46  33  60 NW13      30.11R
Boston         PTCLDY    39  25  57 NW12G21   30.04R WCI  32
Pittsburg      FOG       35  35 100 CALM      30.21R VSB<1/4
Akron          FOG       36  34  92 CALM      30.21R VSB 1/2
Cleveland      MOCLDY    35  30  82 CALM      30.24R
Cincinnati     FOG       39  39 100 E3        30.21R VSB 1/4
Columbus       FOG       34  35 100 CALM      30.22R VSB 1/4
Detroit        CLOUDY    37  30  75 CALM      30.24R
Chicago O`Hare CLOUDY    46  42  86 SE8       30.10S
Minneapolis    CLOUDY    51  43  74 S13       29.84S
Indianapolis   FOG       41  41 100 E3        30.18R VSB 1/4

$$




USA.gov is the U.S. government's official web portal to all federal, state and local government web resources and services.